• In Deutschland
  • Länderverzeichnis
  • Für 7 Tage
  • Wassertemperatur
  • Satellitenkarten
  • Wetterkarte
  • Widgets
  • user-avatar
    Anmelden

    Stündliche Wetter Baku

    Heute, 25 September, Montag

    Zeit Temperatur Niederschläge Wind Luftdruck Luftfeuchtigkeit
    00:00 +23°C° 0 mm 10 m/S 764 mmHg 57%
    01:00 +23°C° 0 mm 10 m/S 764 mmHg 57%
    02:00 +23°C° 0 mm 10 m/S 764 mmHg 57%
    03:00 +23°C° 0 mm 10 m/S 763 mmHg 57%
    04:00 +23°C° 0 mm 10 m/S 763 mmHg 55%
    05:00 +23°C° 0 mm 10 m/S 763 mmHg 54%
    06:00 +23°C° 0 mm 10 m/S 763 mmHg 53%
    07:00 +24°C° 0 mm 10 m/S 763 mmHg 49%
    08:00 +26°C° 0 mm 10 m/S 764 mmHg 46%
    09:00 +26°C° 0 mm 11 m/S 764 mmHg 42%
    10:00 +27°C° 0 mm 11 m/S 764 mmHg 42%
    11:00 +28°C° 0 mm 11 m/S 764 mmHg 41%
    12:00 +28°C° 0 mm 11 m/S 763 mmHg 40%
    13:00 +28°C° 0 mm 11 m/S 763 mmHg 41%
    14:00 +28°C° 0 mm 11 m/S 763 mmHg 42%
    15:00 +28°C° 0 mm 11 m/S 763 mmHg 43%
    16:00 +27°C° 0 mm 11 m/S 763 mmHg 44%
    17:00 +27°C° 0 mm 11 m/S 763 mmHg 46%
    18:00 +26°C° 0 mm 11 m/S 763 mmHg 47%
    19:00 +26°C° 0 mm 11 m/S 763 mmHg 50%
    20:00 +24°C° 0 mm 11 m/S 764 mmHg 53%
    21:00 +24°C° 0 mm 10 m/S 764 mmHg 56%
    22:00 +24°C° 0 mm 10 m/S 764 mmHg 58%
    23:00 +23°C° 0 mm 10 m/S 764 mmHg 61%

    Morgen, 26 September, Dienstag

    Zeit Temperatur Niederschläge Wind Luftdruck Luftfeuchtigkeit
    00:00 +23°C° 0 mm 10 m/S 764 mmHg 63%
    01:00 +22°C° 0 mm 9 m/S 764 mmHg 64%
    02:00 +22°C° 0 mm 9 m/S 764 mmHg 66%
    03:00 +22°C° 0 mm 9 m/S 763 mmHg 67%
    04:00 +22°C° 0 mm 8 m/S 763 mmHg 68%
    05:00 +21°C° 0 mm 8 m/S 764 mmHg 69%
    06:00 +21°C° 0 mm 8 m/S 764 mmHg 70%
    07:00 +22°C° 0 mm 8 m/S 764 mmHg 67%
    08:00 +22°C° 0 mm 7 m/S 764 mmHg 64%
    09:00 +23°C° 0 mm 7 m/S 764 mmHg 60%
    10:00 +23°C° 0 mm 7 m/S 764 mmHg 58%
    11:00 +24°C° 0 mm 7 m/S 764 mmHg 56%
    12:00 +24°C° 0 mm 6 m/S 764 mmHg 54%
    13:00 +24°C° 0 mm 7 m/S 764 mmHg 55%
    14:00 +24°C° 0 mm 7 m/S 764 mmHg 55%
    15:00 +23°C° 0 mm 7 m/S 763 mmHg 56%
    16:00 +23°C° 0 mm 7 m/S 764 mmHg 57%
    17:00 +22°C° 0 mm 8 m/S 764 mmHg 58%
    18:00 +22°C° 0 mm 8 m/S 764 mmHg 60%
    19:00 +22°C° 0 mm 8 m/S 764 mmHg 61%
    20:00 +21°C° 0 mm 8 m/S 764 mmHg 62%
    21:00 +21°C° 0 mm 8 m/S 764 mmHg 63%
    22:00 +21°C° 0 mm 8 m/S 764 mmHg 64%
    23:00 +21°C° 0 mm 8 m/S 764 mmHg 64%

    übermorgen, 27 September, Mittwoch

    Zeit Temperatur Niederschläge Wind Luftdruck Luftfeuchtigkeit
    00:00 +20°C° 0 mm 8 m/S 764 mmHg 65%
    01:00 +20°C° 0 mm 8 m/S 764 mmHg 65%
    02:00 +20°C° 0 mm 8 m/S 763 mmHg 65%
    03:00 +20°C° 0 mm 8 m/S 763 mmHg 65%
    04:00 +20°C° 0 mm 7 m/S 763 mmHg 66%
    05:00 +20°C° 0 mm 7 m/S 763 mmHg 66%
    06:00 +20°C° 0 mm 7 m/S 763 mmHg 66%
    07:00 +18°C° 0,4 mm 7 m/S 763 mmHg 68%
    08:00 +18°C° 0,4 mm 7 m/S 764 mmHg 70%
    09:00 +18°C° 0,4 mm 7 m/S 764 mmHg 72%
    10:00 +18°C° 0,6 mm 7 m/S 764 mmHg 73%
    11:00 +18°C° 0,6 mm 7 m/S 764 mmHg 74%
    12:00 +18°C° 0,6 mm 7 m/S 764 mmHg 75%
    13:00 +18°C° 0,7 mm 7 m/S 764 mmHg 75%
    14:00 +19°C° 0,7 mm 6 m/S 764 mmHg 74%
    15:00 +19°C° 0,7 mm 6 m/S 764 mmHg 74%
    16:00 +19°C° 0,3 mm 6 m/S 764 mmHg 75%
    17:00 +19°C° 0,3 mm 6 m/S 764 mmHg 75%
    18:00 +19°C° 0,3 mm 6 m/S 764 mmHg 76%
    19:00 +19°C° 0,4 mm 6 m/S 765 mmHg 76%
    20:00 +19°C° 0,4 mm 6 m/S 765 mmHg 76%
    21:00 +20°C° 0,4 mm 7 m/S 765 mmHg 76%
    22:00 +18°C° 1,7 mm 7 m/S 765 mmHg 75%
    23:00 +18°C° 1,7 mm 7 m/S 765 mmHg 75%

    28 September, Donnerstag

    Zeit Temperatur Niederschläge Wind Luftdruck Luftfeuchtigkeit
    00:00 +17°C° 1,7 mm 7 m/S 764 mmHg 74%
    01:00 +17°C° 1,1 mm 7 m/S 764 mmHg 74%
    02:00 +17°C° 1,1 mm 7 m/S 765 mmHg 74%
    03:00 +17°C° 1,1 mm 6 m/S 765 mmHg 74%
    04:00 +17°C° 1 mm 6 m/S 765 mmHg 76%
    05:00 +17°C° 1 mm 6 m/S 765 mmHg 77%
    06:00 +17°C° 1 mm 6 m/S 765 mmHg 79%
    07:00 +17°C° 0,9 mm 6 m/S 766 mmHg 79%
    08:00 +17°C° 0,9 mm 6 m/S 766 mmHg 79%
    09:00 +17°C° 0,9 mm 6 m/S 766 mmHg 78%
    10:00 +17°C° 1,1 mm 6 m/S 766 mmHg 78%
    11:00 +17°C° 1,1 mm 6 m/S 767 mmHg 78%
    12:00 +17°C° 1,1 mm 6 m/S 767 mmHg 78%
    13:00 +17°C° 0,3 mm 6 m/S 767 mmHg 77%
    14:00 +17°C° 0,3 mm 6 m/S 767 mmHg 77%
    15:00 +17°C° 0,3 mm 6 m/S 767 mmHg 76%
    16:00 +17°C° 0,2 mm 6 m/S 767 mmHg 75%
    17:00 +17°C° 0,2 mm 6 m/S 767 mmHg 75%
    18:00 +17°C° 0,2 mm 6 m/S 767 mmHg 75%
    19:00 +17°C° 0,3 mm 6 m/S 768 mmHg 74%
    20:00 +17°C° 0,3 mm 6 m/S 768 mmHg 74%
    21:00 +17°C° 0,3 mm 6 m/S 768 mmHg 74%
    22:00 +17°C° 0,3 mm 6 m/S 768 mmHg 73%
    23:00 +17°C° 0,3 mm 5 m/S 767 mmHg 73%

    29 September, Freitag

    Zeit Temperatur Niederschläge Wind Luftdruck Luftfeuchtigkeit
    00:00 +17°C° 0,3 mm 5 m/S 767 mmHg 72%
    01:00 +17°C° 0,1 mm 5 m/S 767 mmHg 71%
    02:00 +19°C° 0,1 mm 5 m/S 767 mmHg 70%
    03:00 +19°C° 0,1 mm 5 m/S 766 mmHg 69%
    04:00 +19°C° 0,1 mm 4 m/S 766 mmHg 69%
    05:00 +19°C° 0,1 mm 4 m/S 766 mmHg 68%
    06:00 +19°C° 0,1 mm 4 m/S 766 mmHg 67%
    07:00 +19°C° 0,1 mm 4 m/S 766 mmHg 66%
    08:00 +19°C° 0,1 mm 4 m/S 767 mmHg 64%
    09:00 +19°C° 0,1 mm 3 m/S 767 mmHg 63%
    10:00 +20°C° 0 mm 3 m/S 766 mmHg 61%
    11:00 +20°C° 0 mm 3 m/S 766 mmHg 59%
    12:00 +20°C° 0 mm 3 m/S 766 mmHg 57%
    13:00 +21°C° 0 mm 4 m/S 765 mmHg 55%
    14:00 +21°C° 0 mm 4 m/S 765 mmHg 53%
    15:00 +22°C° 0 mm 4 m/S 765 mmHg 52%
    16:00 +22°C° 0 mm 4 m/S 765 mmHg 52%
    17:00 +21°C° 0 mm 4 m/S 765 mmHg 53%
    18:00 +21°C° 0 mm 4 m/S 765 mmHg 54%
    19:00 +21°C° 0 mm 4 m/S 765 mmHg 54%
    20:00 +21°C° 0 mm 4 m/S 765 mmHg 54%
    21:00 +21°C° 0 mm 4 m/S 764 mmHg 55%
    22:00 +21°C° 0 mm 4 m/S 764 mmHg 55%
    23:00 +21°C° 0 mm 4 m/S 764 mmHg 56%

    30 September, Samstag

    Zeit Temperatur Niederschläge Wind Luftdruck Luftfeuchtigkeit
    00:00 +21°C° 0 mm 4 m/S 763 mmHg 56%
    01:00 +21°C° 0 mm 4 m/S 763 mmHg 56%
    02:00 +21°C° 0 mm 4 m/S 762 mmHg 56%
    03:00 +21°C° 0 mm 4 m/S 762 mmHg 56%
    04:00 +22°C° 0 mm 4 m/S 762 mmHg 56%
    05:00 +22°C° 0 mm 4 m/S 762 mmHg 56%
    06:00 +22°C° 0 mm 4 m/S 762 mmHg 55%
    07:00 +23°C° 0 mm 5 m/S 762 mmHg 55%
    08:00 +23°C° 0 mm 6 m/S 762 mmHg 54%
    09:00 +24°C° 0 mm 6 m/S 761 mmHg 53%
    10:00 +24°C° 0 mm 6 m/S 761 mmHg 53%
    11:00 +26°C° 0 mm 7 m/S 760 mmHg 53%
    12:00 +26°C° 0 mm 7 m/S 760 mmHg 53%
    13:00 +26°C° 0 mm 7 m/S 760 mmHg 53%
    14:00 +26°C° 0 mm 6 m/S 759 mmHg 53%
    15:00 +26°C° 0 mm 6 m/S 759 mmHg 52%
    16:00 +26°C° 0 mm 5 m/S 759 mmHg 54%
    17:00 +25°C° 0 mm 5 m/S 759 mmHg 56%
    18:00 +25°C° 0 mm 4 m/S 759 mmHg 58%
    19:00 +25°C° 0,1 mm 4 m/S 759 mmHg 59%
    20:00 +23°C° 0,1 mm 4 m/S 759 mmHg 60%
    21:00 +23°C° 0,1 mm 4 m/S 759 mmHg 61%
    22:00 +24°C° 0 mm 3 m/S 758 mmHg 62%
    23:00 +24°C° 0 mm 3 m/S 758 mmHg 63%
    Mehr zeigen